Location: Irma
(52.9170°N, 111.2330°W)
Time: 06:18:09
(UTC-06:00)

Cosmos 1633 Rocket - Visible Passes

Search period start: 21 April 2014 00:00
Search period end: 01 May 2014 00:00
Orbit: 610 x 625 km, 82.5° (Epoch: 20 April)

Date Brightness Start Highest point End Pass type
(mag) Time Alt. Az. Time Alt. Az. Time Alt. Az.
21 Apr 5.5 04:17:05 10° SE 04:20:27 22° E 04:23:51 10° NE visible
22 Apr 4.6 04:33:11 10° SSE 04:37:12 35° E 04:41:14 10° NNE visible
23 Apr 3.7 04:49:40 10° S 04:54:01 58° E 04:58:24 10° NNE visible
24 Apr 5.8 03:31:32 10° ESE 03:33:45 14° E 03:35:59 10° NE visible
24 Apr 3.1 05:06:29 10° SSW 05:10:56 85° W 05:15:24 10° N visible
25 Apr 5.3 03:47:01 10° SE 03:50:24 22° E 03:53:49 10° NE visible
25 Apr 3.4 05:23:37 10° SSW 05:27:56 51° WNW 05:32:17 10° N visible
26 Apr 4.5 04:03:07 10° SSE 04:07:08 35° E 04:11:11 10° NNE visible
27 Apr 3.6 04:19:37 10° S 04:23:58 59° E 04:28:20 10° NNE visible
28 Apr 5.7 03:01:26 10° ESE 03:03:41 14° E 03:05:57 10° NE visible
28 Apr 3.1 04:36:26 10° SSW 04:40:52 84° W 04:45:20 10° N visible
29 Apr 5.2 03:16:55 10° SE 03:20:20 22° E 03:23:46 10° NE visible
29 Apr 3.4 04:53:33 10° SSW 04:57:52 50° WNW 05:02:13 10° N visible
30 Apr 4.4 03:33:19 12° SSE 03:37:04 36° E 03:41:07 10° NNE visible
30 Apr 4.1 05:10:59 10° SW 05:14:57 31° WNW 05:18:56 10° N visible
